ASTRA 2B                
1 26494U 00054A   19258.83374383  .00000111  00000-0  00000-0 0  9991
2 26494   3.9165  75.3771 0005134  84.3721 154.2870  1.00273542 22150
AMC-7 (GE-7)            
1 26495U 00054B   19258.89632726  .00000080  00000-0  00000-0 0  9991
2 26495   0.6739  95.0339 0002934  84.9851   2.2183  1.00272578 69503
ARIANE 5 R/B            
1 26496U 00054C   19258.51445282 -.00000201  00000-0 -68679-3 0  9996
2 26496   7.4766  62.8321 7178164 268.2708  16.2796  2.24142943155641
ARIANE 5 DEB [SYLDA]    
1 26497U 00054D   19258.49007649 -.00000213  00000-0 -22034-3 0  9993
2 26497   7.4912  15.6330 7154185   2.8230   6.4848  2.27370839157506